When you browse on this site, cookies collect data to enhance your experience and personalize the content and advertising you see.
Visit our Privacy Policy to learn more. By continuing to use the site, you agree to this use of cookies and data.
  • In Schweiz
  • Länderverzeichnis
  • Für 7 Tage
  • Wassertemperatur
  • Satellitenkarten
  • Wetterkarte
  • Widgets
  • user-avatar
    Anmelden

    Stündliche Wetter Megri

    Heute, 25 April, Donnerstag

    Zeit Temperatur Niederschläge Wind Luftdruck Luftfeuchtigkeit
    00:00 +2°C° 0 mm 1 m/S 624 mmHg 61%
    01:00 +2°C° 0 mm 1 m/S 624 mmHg 61%
    02:00 +2°C° 0 mm 1 m/S 624 mmHg 61%
    03:00 +2°C° 0 mm 1 m/S 624 mmHg 60%
    04:00 +2°C° 0 mm 1 m/S 624 mmHg 59%
    05:00 +2°C° 0 mm 1 m/S 625 mmHg 58%
    06:00 +3°C° 0 mm 1 m/S 625 mmHg 57%
    07:00 +4°C° 0 mm 1 m/S 625 mmHg 53%
    08:00 +4°C° 0 mm 2 m/S 626 mmHg 49%
    09:00 +5°C° 0 mm 2 m/S 626 mmHg 44%
    10:00 +6°C° 0 mm 2 m/S 626 mmHg 43%
    11:00 +7°C° 0 mm 2 m/S 626 mmHg 43%
    12:00 +8°C° 0 mm 2 m/S 626 mmHg 42%
    13:00 +8°C° 0.1 mm 3 m/S 626 mmHg 43%
    14:00 +8°C° 0.1 mm 3 m/S 626 mmHg 44%
    15:00 +8°C° 0.1 mm 3 m/S 626 mmHg 45%
    16:00 +8°C° 0.1 mm 3 m/S 625 mmHg 49%
    17:00 +7°C° 0.1 mm 3 m/S 625 mmHg 53%
    18:00 +5°C° 0.1 mm 3 m/S 625 mmHg 57%
    19:00 +4°C° 0.1 mm 3 m/S 625 mmHg 63%
    20:00 +3°C° 0.1 mm 3 m/S 625 mmHg 69%
    21:00 +2°C° 0.1 mm 3 m/S 625 mmHg 75%
    22:00 +3°C° 0 mm 2 m/S 625 mmHg 78%
    23:00 +2°C° 0 mm 2 m/S 625 mmHg 81%

    Morgen, 26 April, Freitag

    Zeit Temperatur Niederschläge Wind Luftdruck Luftfeuchtigkeit
    00:00 +2°C° 0 mm 2 m/S 625 mmHg 84%
    01:00 +2°C° 0 mm 2 m/S 625 mmHg 84%
    02:00 +1°C° 0 mm 2 m/S 624 mmHg 85%
    03:00 +1°C° 0 mm 2 m/S 624 mmHg 85%
    04:00 +1°C° 0 mm 2 m/S 624 mmHg 83%
    05:00 +1°C° 0 mm 2 m/S 625 mmHg 80%
    06:00 +1°C° 0 mm 2 m/S 625 mmHg 78%
    07:00 +3°C° 0 mm 2 m/S 625 mmHg 66%
    08:00 +5°C° 0 mm 2 m/S 625 mmHg 54%
    09:00 +5°C° 0 mm 3 m/S 626 mmHg 42%
    10:00 +7°C° 0 mm 3 m/S 626 mmHg 40%
    11:00 +8°C° 0 mm 3 m/S 626 mmHg 37%
    12:00 +9°C° 0 mm 3 m/S 626 mmHg 34%
    13:00 +10°C° 0 mm 3 m/S 626 mmHg 34%
    14:00 +10°C° 0 mm 3 m/S 625 mmHg 34%
    15:00 +10°C° 0 mm 3 m/S 625 mmHg 34%
    16:00 +10°C° 0 mm 3 m/S 625 mmHg 39%
    17:00 +9°C° 0 mm 3 m/S 624 mmHg 43%
    18:00 +8°C° 0 mm 3 m/S 624 mmHg 48%
    19:00 +7°C° 0 mm 3 m/S 624 mmHg 56%
    20:00 +6°C° 0 mm 2 m/S 624 mmHg 63%
    21:00 +5°C° 0 mm 2 m/S 624 mmHg 71%
    22:00 +4°C° 0 mm 2 m/S 624 mmHg 74%
    23:00 +4°C° 0 mm 2 m/S 624 mmHg 78%

    übermorgen, 27 April, Samstag

    Zeit Temperatur Niederschläge Wind Luftdruck Luftfeuchtigkeit
    00:00 +3°C° 0 mm 2 m/S 624 mmHg 81%
    01:00 +3°C° 0 mm 2 m/S 623 mmHg 81%
    02:00 +3°C° 0 mm 2 m/S 623 mmHg 81%
    03:00 +3°C° 0 mm 2 m/S 623 mmHg 82%
    04:00 +3°C° 0 mm 2 m/S 623 mmHg 79%
    05:00 +3°C° 0 mm 2 m/S 623 mmHg 76%
    06:00 +4°C° 0 mm 2 m/S 623 mmHg 73%
    07:00 +6°C° 0 mm 1 m/S 624 mmHg 61%
    08:00 +8°C° 0 mm 1 m/S 624 mmHg 50%
    09:00 +9°C° 0 mm 1 m/S 625 mmHg 39%
    10:00 +10°C° 0 mm 1 m/S 625 mmHg 36%
    11:00 +11°C° 0 mm 1 m/S 625 mmHg 34%
    12:00 +12°C° 0 mm 1 m/S 625 mmHg 32%
    13:00 +13°C° 0 mm 1 m/S 625 mmHg 31%
    14:00 +13°C° 0 mm 2 m/S 624 mmHg 31%
    15:00 +14°C° 0 mm 2 m/S 624 mmHg 30%
    16:00 +13°C° 0 mm 2 m/S 624 mmHg 33%
    17:00 +12°C° 0 mm 2 m/S 624 mmHg 36%
    18:00 +12°C° 0 mm 2 m/S 623 mmHg 39%
    19:00 +10°C° 0 mm 1 m/S 623 mmHg 45%
    20:00 +9°C° 0 mm 1 m/S 623 mmHg 51%
    21:00 +8°C° 0 mm 1 m/S 622 mmHg 58%
    22:00 +7°C° 0 mm 1 m/S 622 mmHg 58%
    23:00 +7°C° 0 mm 1 m/S 622 mmHg 59%

    28 April, Sonntag

    Zeit Temperatur Niederschläge Wind Luftdruck Luftfeuchtigkeit
    00:00 +7°C° 0 mm 1 m/S 621 mmHg 59%
    01:00 +5°C° 0 mm 0 m/S 621 mmHg 58%
    02:00 +5°C° 0 mm 0 m/S 621 mmHg 56%
    03:00 +4°C° 0 mm 0 m/S 620 mmHg 55%
    04:00 +5°C° 0 mm 0 m/S 621 mmHg 54%
    05:00 +5°C° 0 mm 0 m/S 621 mmHg 54%
    06:00 +6°C° 0 mm 0 m/S 621 mmHg 53%
    07:00 +9°C° 0 mm 1 m/S 622 mmHg 48%
    08:00 +11°C° 0 mm 1 m/S 622 mmHg 43%
    09:00 +12°C° 0 mm 2 m/S 623 mmHg 37%
    10:00 +12°C° 0 mm 3 m/S 623 mmHg 36%
    11:00 +13°C° 0 mm 3 m/S 623 mmHg 34%
    12:00 +14°C° 0 mm 4 m/S 623 mmHg 32%
    13:00 +15°C° 0 mm 4 m/S 623 mmHg 31%
    14:00 +15°C° 0 mm 4 m/S 623 mmHg 31%
    15:00 +15°C° 0 mm 4 m/S 622 mmHg 30%
    16:00 +16°C° 0 mm 3 m/S 622 mmHg 32%
    17:00 +15°C° 0 mm 2 m/S 622 mmHg 34%
    18:00 +15°C° 0 mm 2 m/S 622 mmHg 37%
    19:00 +13°C° 0 mm 1 m/S 622 mmHg 40%
    20:00 +12°C° 0 mm 1 m/S 622 mmHg 44%
    21:00 +10°C° 0 mm 1 m/S 621 mmHg 48%
    22:00 +10°C° 0 mm 1 m/S 621 mmHg 48%
    23:00 +10°C° 0 mm 1 m/S 621 mmHg 49%

    29 April, Montag

    Zeit Temperatur Niederschläge Wind Luftdruck Luftfeuchtigkeit
    00:00 +9°C° 0 mm 1 m/S 621 mmHg 49%
    01:00 +9°C° 0 mm 1 m/S 621 mmHg 50%
    02:00 +8°C° 0 mm 1 m/S 621 mmHg 51%
    03:00 +8°C° 0 mm 1 m/S 620 mmHg 52%
    04:00 +8°C° 0 mm 1 m/S 621 mmHg 52%
    05:00 +9°C° 0 mm 1 m/S 621 mmHg 53%
    06:00 +9°C° 0 mm 1 m/S 621 mmHg 53%
    07:00 +10°C° 0 mm 2 m/S 622 mmHg 49%
    08:00 +12°C° 0 mm 2 m/S 623 mmHg 46%
    09:00 +13°C° 0 mm 3 m/S 623 mmHg 42%
    10:00 +14°C° 0 mm 3 m/S 623 mmHg 40%
    11:00 +15°C° 0 mm 4 m/S 623 mmHg 39%
    12:00 +17°C° 0 mm 4 m/S 624 mmHg 37%
    13:00 +17°C° 0.1 mm 4 m/S 623 mmHg 37%
    14:00 +17°C° 0.1 mm 4 m/S 623 mmHg 36%
    15:00 +18°C° 0.1 mm 3 m/S 623 mmHg 36%
    16:00 +17°C° 0.4 mm 3 m/S 622 mmHg 39%
    17:00 +16°C° 0.4 mm 2 m/S 622 mmHg 42%
    18:00 +16°C° 0.4 mm 2 m/S 622 mmHg 45%
    19:00 +14°C° 0.3 mm 1 m/S 622 mmHg 50%
    20:00 +13°C° 0.3 mm 1 m/S 622 mmHg 55%
    21:00 +12°C° 0.3 mm 1 m/S 622 mmHg 61%
    22:00 +12°C° 0 mm 1 m/S 622 mmHg 61%
    23:00 +11°C° 0 mm 1 m/S 621 mmHg 62%

    30 April, Dienstag

    Zeit Temperatur Niederschläge Wind Luftdruck Luftfeuchtigkeit
    00:00 +10°C° 0 mm 0 m/S 621 mmHg 62%
    01:00 +10°C° 0 mm 1 m/S 621 mmHg 62%
    02:00 +10°C° 0 mm 1 m/S 621 mmHg 62%
    03:00 +9°C° 0 mm 1 m/S 621 mmHg 62%
    04:00 +9°C° 0 mm 1 m/S 621 mmHg 63%
    05:00 +10°C° 0 mm 1 m/S 621 mmHg 63%
    06:00 +10°C° 0 mm 1 m/S 622 mmHg 64%
    07:00 +12°C° 0 mm 1 m/S 622 mmHg 58%
    08:00 +13°C° 0 mm 2 m/S 623 mmHg 51%
    09:00 +15°C° 0 mm 2 m/S 624 mmHg 45%
    10:00 +16°C° 0 mm 3 m/S 624 mmHg 42%
    11:00 +17°C° 0 mm 3 m/S 624 mmHg 40%
    12:00 +18°C° 0 mm 4 m/S 624 mmHg 37%
    13:00 +18°C° 0 mm 4 m/S 624 mmHg 35%
    14:00 +19°C° 0 mm 3 m/S 623 mmHg 34%
    15:00 +19°C° 0 mm 3 m/S 623 mmHg 32%
    16:00 +19°C° 0.1 mm 3 m/S 623 mmHg 34%
    17:00 +18°C° 0.1 mm 2 m/S 623 mmHg 37%
    18:00 +18°C° 0.1 mm 1 m/S 623 mmHg 39%
    19:00 +16°C° 0 mm 1 m/S 622 mmHg 45%
    20:00 +14°C° 0 mm 1 m/S 622 mmHg 51%
    21:00 +13°C° 0 mm 1 m/S 622 mmHg 57%
    22:00 +12°C° 0.1 mm 1 m/S 622 mmHg 58%
    23:00 +11°C° 0.1 mm 0 m/S 621 mmHg 60%
    Mehr zeigen